,,Stat6,,Stat2,,Stat8,,Stat9,,Stat10,,Wind1,,Wind1,
time,status,PA1M_AVG,status,PR1M_SUM,status,RH1M_AVG,status,SR1M_AVG,status,TA1M_AVG,status,W1dAve1m,status,W1sAve1m,
2007-10-08, 00:00:00,VALID,918.473,VALID,0,VALID,100,VALID,-0.0339617,VALID,19.1076,VALID,82,VALID,0.319382,
2007-10-08, 00:01:00,VALID,918.464,VALID,0,VALID,100,VALID,-0.0509425,VALID,19.0887,VALID,41,VALID,0.209449,
2007-10-08, 00:02:00,VALID,918.437,VALID,0,VALID,100,VALID,-0.0679233,VALID,19.03,VALID,60,VALID,0.0924162,
2007-10-08, 00:03:00,VALID,918.444,VALID,0,VALID,100,VALID,-0.0339617,VALID,19.0233,VALID,62,VALID,0.230078,
2007-10-08, 00:04:00,VALID,918.456,VALID,0,VALID,100,VALID,-0.0509425,VALID,19.0233,VALID,56,VALID,0.369549,
2007-10-08, 00:05:00,VALID,918.438,VALID,0,VALID,100,VALID,-0.0849042,VALID,19.0168,VALID,51,VALID,0.327934,
2007-10-08, 00:06:00,VALID,918.429,VALID,0,VALID,100,VALID,-0.0509425,VALID,18.9776,VALID,51,VALID,0.00327035,
2007-10-08, 00:07:00,VALID,918.407,VALID,0,VALID,100,VALID,0.0169808,VALID,18.9837,VALID,51,VALID,0,
2007-10-08, 00:08:00,VALID,918.401,VALID,0,VALID,100,VALID,0.0169808,VALID,18.957,VALID,51,VALID,0,
2007-10-08, 00:09:00,VALID,918.394,VALID,0,VALID,100,VALID,0.0339617,VALID,18.9475,VALID,51,VALID,0,
2007-10-08, 00:10:00,VALID,918.371,VALID,0,VALID,100,VALID,0.0509425,VALID,18.9308,VALID,51,VALID,0,
2007-10-08, 00:11:00,VALID,918.356,VALID,0,VALID,100,VALID,0.0509425,VALID,18.9213,VALID,81,VALID,0.278993,
2007-10-08, 00:12:00,VALID,918.341,VALID,0,VALID,100,VALID,0,VALID,18.9053,VALID,179,VALID,0.468178,
2007-10-08, 00:13:00,VALID,918.331,VALID,0,VALID,100,VALID,0.0509425,VALID,18.8761,VALID,179,VALID,0.563834,
2007-10-08, 00:14:00,VALID,918.305,VALID,0,VALID,100,VALID,0.0169808,VALID,18.8504,VALID,179,VALID,0.465701,
2007-10-08, 00:15:00,VALID,918.294,VALID,0,VALID,100,VALID,0,VALID,18.8477,VALID,179,VALID,0.310268,
2007-10-08, 00:16:00,VALID,918.292,VALID,0,VALID,100,VALID,-0.0169808,VALID,18.8382,VALID,179,VALID,0.00260417,
2007-10-08, 00:17:00,VALID,918.284,VALID,0,VALID,100,VALID,0,VALID,18.825,VALID,179,VALID,0,
2007-10-08, 00:18:00,VALID,918.286,VALID,0,VALID,100,VALID,0.0169808,VALID,18.825,VALID,179,VALID,0,
2007-10-08, 00:19:00,VALID,918.277,VALID,0,VALID,100,VALID,0.0169808,VALID,18.8277,VALID,179,VALID,0,
2007-10-08, 00:20:00,VALID,918.284,VALID,0,VALID,100,VALID,0,VALID,18.8509,VALID,179,VALID,0,
2007-10-08, 00:21:00,VALID,918.285,VALID,0,VALID,100,VALID,0.0169808,VALID,18.8602,VALID,179,VALID,0.250363,
2007-10-08, 00:22:00,VALID,918.281,VALID,0,VALID,100,VALID,-0.0849042,VALID,18.8484,VALID,179,VALID,0.302024,
2007-10-08, 00:23:00,VALID,918.284,VALID,0,VALID,100,VALID,-0.0849042,VALID,18.8192,VALID,179,VALID,0.24907,
2007-10-08, 00:24:00,VALID,918.272,VALID,0,VALID,100,VALID,-0.0849042,VALID,18.7865,VALID,178,VALID,0.443859,
2007-10-08, 00:25:00,VALID,918.262,VALID,0,VALID,100,VALID,-0.0679233,VALID,18.781,VALID,147,VALID,0.538876,
2007-10-08, 00:26:00,VALID,918.257,VALID,0,VALID,100,VALID,-0.0849042,VALID,18.7768,VALID,147,VALID,0.601563,
2007-10-08, 00:27:00,VALID,918.234,VALID,0,VALID,100,VALID,-0.0339617,VALID,18.7638,VALID,159,VALID,0.936899,
2007-10-08, 00:28:00,VALID,918.21,VALID,0,VALID,100,VALID,-0.0849042,VALID,18.7576,VALID,182,VALID,0.869474,
2007-10-08, 00:29:00,VALID,918.183,VALID,0,VALID,100,VALID,-0.101885,VALID,18.7346,VALID,189,VALID,0.73952,
2007-10-08, 00:30:00,VALID,918.165,VALID,0,VALID,100,VALID,-0.0849042,VALID,18.7186,VALID,194,VALID,0.896621,
2007-10-08, 00:31:00,VALID,918.144,VALID,0,VALID,100,VALID,-0.0679233,VALID,18.7087,VALID,195,VALID,1.09889,
2007-10-08, 00:32:00,VALID,918.113,VALID,0,VALID,100,VALID,-0.0849042,VALID,18.6765,VALID,195,VALID,1.04669,
2007-10-08, 00:33:00,VALID,918.096,VALID,0,VALID,100,VALID,-0.101885,VALID,18.6737,VALID,191,VALID,1.1189,
2007-10-08, 00:34:00,VALID,918.084,VALID,0,VALID,100,VALID,-0.0679233,VALID,18.6769,VALID,179,VALID,1.07758,
2007-10-08, 00:35:00,VALID,918.067,VALID,0,VALID,100,VALID,-0.0849042,VALID,18.6565,VALID,185,VALID,1.00618,
2007-10-08, 00:36:00,VALID,918.039,VALID,0,VALID,100,VALID,-0.0679233,VALID,18.6732,VALID,178,VALID,1.11228,
2007-10-08, 00:37:00,VALID,918.014,VALID,0,VALID,100,VALID,-0.0849042,VALID,18.6892,VALID,160,VALID,0.944965,
2007-10-08, 00:38:00,VALID,918.002,VALID,0,VALID,100,VALID,-0.0849042,VALID,18.702,VALID,155,VALID,1.01448,
2007-10-08, 00:39:00,VALID,917.99,VALID,0,VALID,100,VALID,-0.0679233,VALID,18.7122,VALID,153,VALID,0.91059,
2007-10-08, 00:40:00,VALID,917.966,VALID,0,VALID,100,VALID,-0.0679233,VALID,18.7084,VALID,153,VALID,0.764027,
2007-10-08, 00:41:00,VALID,917.939,VALID,0,VALID,100,VALID,-0.0509425,VALID,18.7054,VALID,152,VALID,0.367898,
2007-10-08, 00:42:00,VALID,917.921,VALID,0,VALID,100,VALID,-0.0509425,VALID,18.6922,VALID,152,VALID,0.39335,
2007-10-08, 00:43:00,VALID,917.905,VALID,0,VALID,100,VALID,-0.0169808,VALID,18.6825,VALID,152,VALID,0.165587,
2007-10-08, 00:44:00,VALID,917.874,VALID,0,VALID,100,VALID,-0.0509425,VALID,18.6892,VALID,152,VALID,0.0183503,
2007-10-08, 00:45:00,VALID,917.858,VALID,0,VALID,100,VALID,-0.0169808,VALID,18.689,VALID,152,VALID,0.0529119,
2007-10-08, 00:46:00,VALID,917.837,VALID,0,VALID,100,VALID,0,VALID,18.676,VALID,152,VALID,0.123001,
2007-10-08, 00:47:00,VALID,917.825,VALID,0,VALID,100,VALID,-0.0509425,VALID,18.6728,VALID,152,VALID,0,
2007-10-08, 00:48:00,VALID,917.823,VALID,0,VALID,100,VALID,-0.0509425,VALID,18.6762,VALID,152,VALID,0,
2007-10-08, 00:49:00,VALID,917.833,VALID,0,VALID,100,VALID,-0.0849042,VALID,18.6795,VALID,152,VALID,0,
2007-10-08, 00:50:00,VALID,917.848,VALID,0,VALID,100,VALID,-0.0169808,VALID,18.6922,VALID,152,VALID,0,
2007-10-08, 00:51:00,VALID,917.857,VALID,0,VALID,100,VALID,-0.0339617,VALID,18.702,VALID,152,VALID,0.18045,
2007-10-08, 00:52:00,VALID,917.85,VALID,0,VALID,100,VALID,-0.0679233,VALID,18.6857,VALID,152,VALID,0.792436,
2007-10-08, 00:53:00,VALID,917.84,VALID,0,VALID,100,VALID,-0.0849042,VALID,18.6533,VALID,152,VALID,0.996003,
2007-10-08, 00:54:00,VALID,917.826,VALID,0,VALID,100,VALID,-0.101885,VALID,18.6176,VALID,151,VALID,0.96875,
2007-10-08, 00:55:00,VALID,917.824,VALID,0,VALID,100,VALID,-0.0509425,VALID,18.5982,VALID,149,VALID,0.861421,
2007-10-08, 00:56:00,VALID,917.805,VALID,0,VALID,100,VALID,-0.0169808,VALID,18.5787,VALID,149,VALID,0.757068,
2007-10-08, 00:57:00,VALID,917.808,VALID,0,VALID,100,VALID,-0.0849042,VALID,18.5687,VALID,149,VALID,0.736421,
2007-10-08, 00:58:00,VALID,917.816,VALID,0,VALID,100,VALID,-0.0849042,VALID,18.5525,VALID,149,VALID,0.586119,
2007-10-08, 00:59:00,VALID,917.819,VALID,0,VALID,100,VALID,-0.0679233,VALID,18.553,VALID,149,VALID,0.437318,
2007-10-08, 01:00:00,VALID,917.841,VALID,0,VALID,100,VALID,-0.0509425,VALID,18.5361,VALID,149,VALID,0.254492,
2007-10-08, 01:01:00,VALID,917.846,VALID,0,VALID,100,VALID,-0.0339617,VALID,18.5266,VALID,146,VALID,0.530705,
2007-10-08, 01:02:00,VALID,917.846,VALID,0,VALID,100,VALID,-0.0339617,VALID,18.5201,VALID,143,VALID,0.475654,
2007-10-08, 01:03:00,VALID,917.845,VALID,0,VALID,100,VALID,-0.0849042,VALID,18.5069,VALID,133,VALID,0.689215,
2007-10-08, 01:04:00,VALID,917.838,VALID,0,VALID,100,VALID,-0.0509425,VALID,18.4712,VALID,124,VALID,0.985377,
2007-10-08, 01:05:00,VALID,917.831,VALID,0,VALID,100,VALID,-0.101885,VALID,18.4884,VALID,121,VALID,1.08727,
2007-10-08, 01:06:00,VALID,917.826,VALID,0,VALID,100,VALID,-0.0679233,VALID,18.4911,VALID,121,VALID,1.03761,
2007-10-08, 01:07:00,VALID,917.824,VALID,0,VALID,100,VALID,0,VALID,18.4867,VALID,123,VALID,1.03852,
2007-10-08, 01:08:00,VALID,917.817,VALID,0,VALID,100,VALID,0.0169808,VALID,18.49,VALID,127,VALID,0.894444,
2007-10-08, 01:09:00,VALID,917.812,VALID,0,VALID,100,VALID,0,VALID,18.4735,VALID,131,VALID,0.829241,
2007-10-08, 01:10:00,VALID,917.782,VALID,0,VALID,100,VALID,0.0509425,VALID,18.4832,VALID,136,VALID,0.971354,
2007-10-08, 01:11:00,VALID,917.77,VALID,0,VALID,100,VALID,0.0509425,VALID,18.5219,VALID,144,VALID,1.02077,
2007-10-08, 01:12:00,VALID,917.746,VALID,0,VALID,100,VALID,0.0169808,VALID,18.6032,VALID,144,VALID,0.685156,
2007-10-08, 01:13:00,VALID,917.72,VALID,0,VALID,100,VALID,0.0339617,VALID,18.6097,VALID,144,VALID,0.235828,
2007-10-08, 01:14:00,VALID,917.699,VALID,0,VALID,100,VALID,0.0509425,VALID,18.5868,VALID,144,VALID,0.365972,
2007-10-08, 01:15:00,VALID,917.662,VALID,0,VALID,100,VALID,0.0169808,VALID,18.5773,VALID,144,VALID,0.065952,
2007-10-08, 01:16:00,VALID,917.623,VALID,0,VALID,100,VALID,0,VALID,18.5743,VALID,144,VALID,0,
2007-10-08, 01:17:00,VALID,917.588,VALID,0,VALID,100,VALID,0,VALID,18.5708,VALID,144,VALID,0,
2007-10-08, 01:18:00,VALID,917.544,VALID,0,VALID,100,VALID,0,VALID,18.5713,VALID,144,VALID,0,
2007-10-08, 01:19:00,VALID,917.507,VALID,0,VALID,100,VALID,0,VALID,18.5643,VALID,144,VALID,0,
2007-10-08, 01:20:00,VALID,917.489,VALID,0,VALID,100,VALID,0,VALID,18.5518,VALID,141,VALID,0.0224848,
2007-10-08, 01:21:00,VALID,917.456,VALID,0,VALID,100,VALID,0,VALID,18.5544,VALID,43,VALID,0.422408,
2007-10-08, 01:22:00,VALID,917.431,VALID,0,VALID,100,VALID,0.0169808,VALID,18.584,VALID,1,VALID,0.141768,
2007-10-08, 01:23:00,VALID,917.401,VALID,0,VALID,100,VALID,0,VALID,18.6,VALID,1,VALID,0.0268111,
2007-10-08, 01:24:00,VALID,917.385,VALID,0,VALID,100,VALID,0.0169808,VALID,18.603,VALID,1,VALID,0.0119048,
2007-10-08, 01:25:00,VALID,917.365,VALID,0,VALID,100,VALID,0.0169808,VALID,18.6,VALID,1,VALID,0.141369,
2007-10-08, 01:26:00,VALID,917.359,VALID,0,VALID,100,VALID,0.0509425,VALID,18.5903,VALID,1,VALID,0.00320513,
2007-10-08, 01:27:00,VALID,917.358,VALID,0,VALID,100,VALID,0.0169808,VALID,18.5803,VALID,1,VALID,0.0012429,
2007-10-08, 01:28:00,VALID,917.341,VALID,0,VALID,100,VALID,0,VALID,18.5773,VALID,1,VALID,0,
2007-10-08, 01:29:00,VALID,917.328,VALID,0,VALID,100,VALID,0.0169808,VALID,18.5546,VALID,1,VALID,0,
2007-10-08, 01:30:00,VALID,917.339,VALID,0,VALID,100,VALID,0,VALID,18.568,VALID,1,VALID,0,
2007-10-08, 01:31:00,VALID,917.32,VALID,0,VALID,100,VALID,0.0339617,VALID,18.5676,VALID,349,VALID,0.14577,
2007-10-08, 01:32:00,VALID,917.311,VALID,0,VALID,100,VALID,0.0509425,VALID,18.5708,VALID,304,VALID,0.460417,
2007-10-08, 01:33:00,VALID,917.292,VALID,0,VALID,100,VALID,0,VALID,18.5873,VALID,304,VALID,0.504616,
2007-10-08, 01:34:00,VALID,917.261,VALID,0,VALID,100,VALID,0.0339617,VALID,18.5933,VALID,304,VALID,0.264757,
2007-10-08, 01:35:00,VALID,917.237,VALID,0,VALID,100,VALID,0.0339617,VALID,18.6,VALID,304,VALID,0,
2007-10-08, 01:36:00,VALID,917.221,VALID,0,VALID,100,VALID,0.0339617,VALID,18.6065,VALID,304,VALID,0.0542869,
2007-10-08, 01:37:00,VALID,917.215,VALID,0,VALID,100,VALID,0.0679233,VALID,18.6227,VALID,318,VALID,0.428089,
2007-10-08, 01:38:00,VALID,917.214,VALID,0,VALID,100,VALID,0.0849042,VALID,18.6289,VALID,332,VALID,0.297763,
2007-10-08, 01:39:00,VALID,917.198,VALID,0,VALID,100,VALID,0.0169808,VALID,18.6259,VALID,332,VALID,0.015067,
2007-10-08, 01:40:00,VALID,917.189,VALID,0,VALID,100,VALID,0.0339617,VALID,18.6294,VALID,332,VALID,0,
2007-10-08, 01:41:00,VALID,917.192,VALID,0,VALID,100,VALID,0.0339617,VALID,18.6162,VALID,332,VALID,0.245236,
2007-10-08, 01:42:00,VALID,917.185,VALID,0,VALID,100,VALID,0,VALID,18.6202,VALID,332,VALID,0.101744,
2007-10-08, 01:43:00,VALID,917.169,VALID,0,VALID,100,VALID,0,VALID,18.6065,VALID,332,VALID,0.327035,
2007-10-08, 01:44:00,VALID,917.152,VALID,0,VALID,100,VALID,0.0169808,VALID,18.5995,VALID,332,VALID,0.303089,
2007-10-08, 01:45:00,VALID,917.127,VALID,0,VALID,100,VALID,0,VALID,18.6037,VALID,332,VALID,0.00240385,
2007-10-08, 01:46:00,VALID,917.108,VALID,0,VALID,100,VALID,0.0169808,VALID,18.5935,VALID,332,VALID,0,
2007-10-08, 01:47:00,VALID,917.097,VALID,0,VALID,100,VALID,0.0169808,VALID,18.5835,VALID,332,VALID,0,
2007-10-08, 01:48:00,VALID,917.077,VALID,0,VALID,100,VALID,0.0509425,VALID,18.5805,VALID,332,VALID,0,
2007-10-08, 01:49:00,VALID,917.069,VALID,0,VALID,100,VALID,0.0169808,VALID,18.5706,VALID,332,VALID,0,
2007-10-08, 01:50:00,VALID,917.059,VALID,0,VALID,100,VALID,0.0509425,VALID,18.5608,VALID,332,VALID,0,
2007-10-08, 01:51:00,VALID,917.054,VALID,0,VALID,100,VALID,0.0679233,VALID,18.5611,VALID,332,VALID,0,
2007-10-08, 01:52:00,VALID,917.051,VALID,0,VALID,100,VALID,0.0169808,VALID,18.5381,VALID,332,VALID,0,
2007-10-08, 01:53:00,VALID,917.035,VALID,0,VALID,100,VALID,0.0169808,VALID,18.5287,VALID,332,VALID,0,
2007-10-08, 01:54:00,VALID,917.016,VALID,0,VALID,100,VALID,0.0339617,VALID,18.5284,VALID,332,VALID,0,
2007-10-08, 01:55:00,VALID,917.007,VALID,0,VALID,100,VALID,0.0169808,VALID,18.5317,VALID,332,VALID,0,
2007-10-08, 01:56:00,VALID,916.994,VALID,0,VALID,100,VALID,0.0509425,VALID,18.5252,VALID,332,VALID,0,
2007-10-08, 01:57:00,VALID,916.974,VALID,0,VALID,100,VALID,0.0169808,VALID,18.5252,VALID,332,VALID,0,
2007-10-08, 01:58:00,VALID,916.969,VALID,0,VALID,100,VALID,0,VALID,18.5252,VALID,332,VALID,0,
2007-10-08, 01:59:00,VALID,916.962,VALID,0,VALID,100,VALID,0.0509425,VALID,18.5122,VALID,332,VALID,0,
2007-10-08, 02:00:00,VALID,916.957,VALID,0,VALID,100,VALID,0.0339617,VALID,18.4958,VALID,332,VALID,0,
2007-10-08, 02:01:00,VALID,916.968,VALID,0,VALID,100,VALID,0.0339617,VALID,18.48,VALID,332,VALID,0,
2007-10-08, 02:02:00,VALID,916.958,VALID,0,VALID,100,VALID,0.0169808,VALID,18.4832,VALID,332,VALID,0,
2007-10-08, 02:03:00,VALID,916.971,VALID,0,VALID,100,VALID,0,VALID,18.4837,VALID,332,VALID,0,
2007-10-08, 02:04:00,VALID,916.974,VALID,0,VALID,100,VALID,0,VALID,18.493,VALID,332,VALID,0,
2007-10-08, 02:05:00,VALID,916.962,VALID,0,VALID,100,VALID,0,VALID,18.5094,VALID,332,VALID,0,
2007-10-08, 02:06:00,VALID,916.961,VALID,0,VALID,100,VALID,0.0169808,VALID,18.5157,VALID,332,VALID,0,
2007-10-08, 02:07:00,VALID,916.953,VALID,0,VALID,100,VALID,-0.0679233,VALID,18.5168,VALID,332,VALID,0,
2007-10-08, 02:08:00,VALID,916.937,VALID,0,VALID,100,VALID,-0.0679233,VALID,18.5101,VALID,332,VALID,0,
2007-10-08, 02:09:00,VALID,916.911,VALID,0,VALID,100,VALID,-0.0509425,VALID,18.5171,VALID,332,VALID,0,
2007-10-08, 02:10:00,VALID,916.878,VALID,0,VALID,100,VALID,-0.0679233,VALID,18.5074,VALID,332,VALID,0,
2007-10-08, 02:11:00,VALID,916.856,VALID,0,VALID,100,VALID,-0.0509425,VALID,18.4652,VALID,332,VALID,0,
2007-10-08, 02:12:00,VALID,916.839,VALID,0,VALID,100,VALID,-0.118866,VALID,18.4101,VALID,332,VALID,0,
2007-10-08, 02:13:00,VALID,916.809,VALID,0,VALID,100,VALID,-0.0679233,VALID,18.3714,VALID,332,VALID,0,
2007-10-08, 02:14:00,VALID,916.803,VALID,0,VALID,100,VALID,-0.101885,VALID,18.3457,VALID,332,VALID,0,
2007-10-08, 02:15:00,VALID,916.779,VALID,0,VALID,100,VALID,-0.0679233,VALID,18.2803,VALID,332,VALID,0,
2007-10-08, 02:16:00,VALID,916.759,VALID,0,VALID,100,VALID,-0.0679233,VALID,18.2509,VALID,332,VALID,0,
2007-10-08, 02:17:00,VALID,916.741,VALID,0,VALID,100,VALID,0,VALID,18.2405,VALID,332,VALID,0,
2007-10-08, 02:18:00,VALID,916.733,VALID,0,VALID,100,VALID,-0.0679233,VALID,18.225,VALID,332,VALID,0,
2007-10-08, 02:19:00,VALID,916.711,VALID,0,VALID,100,VALID,-0.0509425,VALID,18.2308,VALID,351,VALID,0,
2007-10-08, 02:20:00,VALID,916.699,VALID,0,VALID,100,VALID,-0.0679233,VALID,18.2349,VALID,3,VALID,0,
2007-10-08, 02:21:00,VALID,916.702,VALID,0,VALID,100,VALID,-0.0509425,VALID,18.2414,VALID,6,VALID,0,
2007-10-08, 02:22:00,VALID,916.705,VALID,0,VALID,100,VALID,-0.0679233,VALID,18.2803,VALID,6,VALID,0,
2007-10-08, 02:23:00,VALID,916.704,VALID,0,VALID,100,VALID,-0.0849042,VALID,18.3033,VALID,24,VALID,0,
2007-10-08, 02:24:00,VALID,916.707,VALID,0,VALID,100,VALID,-0.0849042,VALID,18.3128,VALID,41,VALID,0,
2007-10-08, 02:25:00,VALID,916.703,VALID,0,VALID,100,VALID,-0.0849042,VALID,18.3257,VALID,44,VALID,0.0345982,
2007-10-08, 02:26:00,VALID,916.691,VALID,0,VALID,100,VALID,-0.0679233,VALID,18.3385,VALID,44,VALID,0.232171,
2007-10-08, 02:27:00,VALID,916.664,VALID,0,VALID,100,VALID,-0.118866,VALID,18.3614,VALID,44,VALID,0.192472,
2007-10-08, 02:28:00,VALID,916.66,VALID,0,VALID,100,VALID,-0.0509425,VALID,18.3744,VALID,44,VALID,0.127131,
2007-10-08, 02:29:00,VALID,916.643,VALID,0,VALID,100,VALID,-0.101885,VALID,18.3871,VALID,44,VALID,0.27798,
2007-10-08, 02:30:00,VALID,916.623,VALID,0,VALID,100,VALID,-0.0849042,VALID,18.4071,VALID,44,VALID,0.0727983,
2007-10-08, 02:31:00,VALID,916.622,VALID,0,VALID,100,VALID,-0.0679233,VALID,18.4233,VALID,44,VALID,0.0719866,
2007-10-08, 02:32:00,VALID,916.59,VALID,0,VALID,100,VALID,-0.0849042,VALID,18.436,VALID,44,VALID,0.0139509,
2007-10-08, 02:33:00,VALID,916.589,VALID,0,VALID,100,VALID,-0.0679233,VALID,18.446,VALID,44,VALID,0,
2007-10-08, 02:34:00,VALID,916.583,VALID,0,VALID,100,VALID,-0.0849042,VALID,18.449,VALID,44,VALID,0,
2007-10-08, 02:35:00,VALID,916.587,VALID,0,VALID,100,VALID,-0.0679233,VALID,18.4622,VALID,39,VALID,0.0138494,
2007-10-08, 02:36:00,VALID,916.581,VALID,0,VALID,100,VALID,-0.0679233,VALID,18.4684,VALID,29,VALID,0.202217,
2007-10-08, 02:37:00,VALID,916.601,VALID,0,VALID,100,VALID,-0.0339617,VALID,18.4738,VALID,27,VALID,0.0753997,
2007-10-08, 02:38:00,VALID,916.603,VALID,0,VALID,100,VALID,0,VALID,18.48,VALID,27,VALID,0,
2007-10-08, 02:39:00,VALID,916.609,VALID,0,VALID,100,VALID,0.0169808,VALID,18.5032,VALID,27,VALID,0,
2007-10-08, 02:40:00,VALID,916.614,VALID,0,VALID,100,VALID,0.0169808,VALID,18.506,VALID,27,VALID,0,
2007-10-08, 02:41:00,VALID,916.614,VALID,0,VALID,100,VALID,0,VALID,18.4995,VALID,27,VALID,0,
2007-10-08, 02:42:00,VALID,916.596,VALID,0,VALID,100,VALID,0.0169808,VALID,18.5029,VALID,27,VALID,0,
2007-10-08, 02:43:00,VALID,916.581,VALID,0,VALID,100,VALID,0,VALID,18.5094,VALID,27,VALID,0,
2007-10-08, 02:44:00,VALID,916.577,VALID,0,VALID,100,VALID,0,VALID,18.5157,VALID,27,VALID,0,
2007-10-08, 02:45:00,VALID,916.571,VALID,0,VALID,100,VALID,0.0339617,VALID,18.5057,VALID,27,VALID,0.010831,
2007-10-08, 02:46:00,VALID,916.58,VALID,0,VALID,100,VALID,0.0339617,VALID,18.5022,VALID,27,VALID,0.0791903,
2007-10-08, 02:47:00,VALID,916.571,VALID,0,VALID,100,VALID,0.0169808,VALID,18.4768,VALID,27,VALID,0.00637336,
2007-10-08, 02:48:00,VALID,916.572,VALID,0,VALID,100,VALID,0.0169808,VALID,18.47,VALID,27,VALID,0.0853659,
2007-10-08, 02:49:00,VALID,916.573,VALID,0,VALID,100,VALID,0,VALID,18.4606,VALID,355,VALID,0.258743,
2007-10-08, 02:50:00,VALID,916.564,VALID,0,VALID,100,VALID,0.0169808,VALID,18.4606,VALID,330,VALID,0.12221,
2007-10-08, 02:51:00,VALID,916.567,VALID,0,VALID,100,VALID,0.0169808,VALID,18.4606,VALID,330,VALID,0,
2007-10-08, 02:52:00,VALID,916.557,VALID,0,VALID,100,VALID,-0.0679233,VALID,18.4587,VALID,330,VALID,0,
2007-10-08, 02:53:00,VALID,916.545,VALID,0,VALID,100,VALID,-0.0849042,VALID,18.4587,VALID,330,VALID,0.0147166,
2007-10-08, 02:54:00,VALID,916.566,VALID,0,VALID,100,VALID,-0.101885,VALID,18.4587,VALID,330,VALID,0.00892857,
2007-10-08, 02:55:00,VALID,916.566,VALID,0,VALID,100,VALID,-0.0509425,VALID,18.462,VALID,330,VALID,0,
2007-10-08, 02:56:00,VALID,916.588,VALID,0,VALID,100,VALID,-0.101885,VALID,18.449,VALID,311,VALID,0.110328,
2007-10-08, 02:57:00,VALID,916.59,VALID,0,VALID,100,VALID,-0.0509425,VALID,18.439,VALID,293,VALID,0.259266,
2007-10-08, 02:58:00,VALID,916.586,VALID,0,VALID,100,VALID,-0.0679233,VALID,18.4298,VALID,275,VALID,0.13956,
2007-10-08, 02:59:00,VALID,916.575,VALID,0,VALID,100,VALID,-0.0339617,VALID,18.4395,VALID,275,VALID,0.00109012,
2007-10-08, 03:00:00,VALID,916.567,VALID,0,VALID,100,VALID,-0.0679233,VALID,18.4362,VALID,275,VALID,0,
2007-10-08, 03:01:00,VALID,916.557,VALID,0,VALID,100,VALID,-0.118866,VALID,18.4168,VALID,275,VALID,0,
2007-10-08, 03:02:00,VALID,916.557,VALID,0,VALID,100,VALID,-0.0849042,VALID,18.3971,VALID,275,VALID,0,
2007-10-08, 03:03:00,VALID,916.543,VALID,0,VALID,100,VALID,-0.101885,VALID,18.3906,VALID,275,VALID,0,
2007-10-08, 03:04:00,VALID,916.541,VALID,0,VALID,100,VALID,-0.0679233,VALID,18.3904,VALID,275,VALID,0,
2007-10-08, 03:05:00,VALID,916.546,VALID,0,VALID,100,VALID,-0.0849042,VALID,18.3874,VALID,275,VALID,0.200218,
2007-10-08, 03:06:00,VALID,916.56,VALID,0,VALID,100,VALID,-0.0679233,VALID,18.3744,VALID,275,VALID,0.443598,
2007-10-08, 03:07:00,VALID,916.551,VALID,0,VALID,100,VALID,-0.101885,VALID,18.3681,VALID,275,VALID,0.0909722,
2007-10-08, 03:08:00,VALID,916.564,VALID,0,VALID,100,VALID,-0.101885,VALID,18.3806,VALID,275,VALID,0,
2007-10-08, 03:09:00,VALID,916.566,VALID,0,VALID,100,VALID,-0.0679233,VALID,18.3841,VALID,275,VALID,0,
2007-10-08, 03:10:00,VALID,916.572,VALID,0,VALID,100,VALID,-0.0849042,VALID,18.3679,VALID,275,VALID,0,
2007-10-08, 03:11:00,VALID,916.583,VALID,0,VALID,100,VALID,-0.101885,VALID,18.3517,VALID,275,VALID,0,
2007-10-08, 03:12:00,VALID,916.579,VALID,0,VALID,100,VALID,-0.0679233,VALID,18.3452,VALID,265,VALID,0,
2007-10-08, 03:13:00,VALID,916.563,VALID,0,VALID,100,VALID,-0.0679233,VALID,18.3614,VALID,258,VALID,0,
2007-10-08, 03:14:00,VALID,916.55,VALID,0,VALID,100,VALID,-0.0679233,VALID,18.3744,VALID,258,VALID,0,
2007-10-08, 03:15:00,VALID,916.549,VALID,0,VALID,100,VALID,-0.0509425,VALID,18.3739,VALID,224,VALID,0,
2007-10-08, 03:16:00,VALID,916.528,VALID,0,VALID,100,VALID,-0.0339617,VALID,18.3644,VALID,166,VALID,0,
2007-10-08, 03:17:00,VALID,916.507,VALID,0,VALID,100,VALID,-0.0679233,VALID,18.3292,VALID,166,VALID,0,
2007-10-08, 03:18:00,VALID,916.477,VALID,0,VALID,100,VALID,-0.0679233,VALID,18.3063,VALID,157,VALID,0,
2007-10-08, 03:19:00,VALID,916.46,VALID,0,VALID,100,VALID,-0.101885,VALID,18.2868,VALID,151,VALID,0,
2007-10-08, 03:20:00,VALID,916.445,VALID,0,VALID,100,VALID,-0.0849042,VALID,18.2607,VALID,151,VALID,0,
2007-10-08, 03:21:00,VALID,916.432,VALID,0,VALID,100,VALID,-0.0679233,VALID,18.2512,VALID,151,VALID,0,
2007-10-08, 03:22:00,VALID,916.407,VALID,0,VALID,100,VALID,0.0509425,VALID,18.2206,VALID,151,VALID,0.320494,
2007-10-08, 03:23:00,VALID,916.375,VALID,0,VALID,100,VALID,0.0339617,VALID,18.1944,VALID,151,VALID,0.518003,
2007-10-08, 03:24:00,VALID,916.359,VALID,0,VALID,100,VALID,0.0679233,VALID,18.1879,VALID,151,VALID,0.738917,
2007-10-08, 03:25:00,VALID,916.335,VALID,0,VALID,100,VALID,0.0849042,VALID,18.1814,VALID,151,VALID,0.616787,
2007-10-08, 03:26:00,VALID,916.317,VALID,0,VALID,100,VALID,0.0509425,VALID,18.168,VALID,151,VALID,0.637355,
2007-10-08, 03:27:00,VALID,916.31,VALID,0,VALID,100,VALID,0.0679233,VALID,18.1849,VALID,151,VALID,0.598214,
2007-10-08, 03:28:00,VALID,916.29,VALID,0,VALID,100,VALID,0.0509425,VALID,18.1713,VALID,147,VALID,0.651414,
2007-10-08, 03:29:00,VALID,916.259,VALID,0,VALID,100,VALID,0.0509425,VALID,18.1814,VALID,135,VALID,0.766183,
2007-10-08, 03:30:00,VALID,916.226,VALID,0,VALID,100,VALID,0.0169808,VALID,18.1784,VALID,133,VALID,0.807893,
2007-10-08, 03:31:00,VALID,916.194,VALID,0,VALID,100,VALID,0.0169808,VALID,18.1685,VALID,135,VALID,0.739644,
2007-10-08, 03:32:00,VALID,916.178,VALID,0,VALID,100,VALID,0.0339617,VALID,18.162,VALID,148,VALID,0.614528,
2007-10-08, 03:33:00,VALID,916.16,VALID,0,VALID,100,VALID,0.0509425,VALID,18.1655,VALID,174,VALID,0.82309,
2007-10-08, 03:34:00,VALID,916.158,VALID,0,VALID,100,VALID,0.0509425,VALID,18.1687,VALID,172,VALID,0.85902,
2007-10-08, 03:35:00,VALID,916.148,VALID,0,VALID,100,VALID,0.0339617,VALID,18.1655,VALID,181,VALID,0.699405,
2007-10-08, 03:36:00,VALID,916.139,VALID,0,VALID,100,VALID,-0.0169808,VALID,18.1754,VALID,172,VALID,0.596168,
2007-10-08, 03:37:00,VALID,916.119,VALID,0,VALID,100,VALID,-0.0849042,VALID,18.1726,VALID,179,VALID,0.986536,
2007-10-08, 03:38:00,VALID,916.109,VALID,0,VALID,100,VALID,-0.0849042,VALID,18.1932,VALID,178,VALID,0.922053,
2007-10-08, 03:39:00,VALID,916.088,VALID,0,VALID,100,VALID,-0.0509425,VALID,18.1958,VALID,178,VALID,1.13336,
2007-10-08, 03:40:00,VALID,916.078,VALID,0,VALID,100,VALID,-0.0509425,VALID,18.2025,VALID,180,VALID,1.00309,
2007-10-08, 03:41:00,VALID,916.067,VALID,0,VALID,100,VALID,-0.0509425,VALID,18.1923,VALID,182,VALID,0.701172,
2007-10-08, 03:42:00,VALID,916.055,VALID,0,VALID,100,VALID,-0.0339617,VALID,18.2018,VALID,166,VALID,0.32303,
2007-10-08, 03:43:00,VALID,916.045,VALID,0,VALID,100,VALID,-0.0679233,VALID,18.215,VALID,171,VALID,0.71895,